Temp
13 14 16 17 17 18 18 17 17 18 19 19 19 20 20 20 22 21 24 27 27 27 27 26 26 26 26 25 24 24 25 24 24 24 25 26 27 27 27 26 26 25 25 24 21
13 16 16 17 18 19 19 19 19 18 18 19 19 20 20 20 20 20 27 27 27 27 27 27 27 27 27 25 25 25 25 24 23 22 24 25 26 27 27 26 24 24 23 22 21
14 16 17 18 19 19 19 19 19 19 19 19 19 20 19 19 21 28 27 27 27 27 27 27 27 28 27 26 25 25 25 23 23 23 23 25 27 28 27 26 26 25 23 23 22
16 17 18 19 19 19 19 19 20 20 20 20 19 19 19 19 28 27 27 27 27 26 27 27 28 28 27 26 25 25 24 24 23 21 22 25 26 27 27 27 27 25 24 23 23
16 17 18 19 19 20 20 20 20 20 20 20 19 19 19 23 27 27 27 27 26 26 27 28 29 29 28 26 26 25 24 24 24 21 24 25 26 26 27 26 26 24 24 24 24
17 18 18 19 20 20 20 20 21 21 21 20 19 19 18 27 26 26 27 26 26 26 27 28 30 29 27 26 25 24 25 25 24 23 23 23 26 26 27 26 26 25 24 24 24
18 18 19 20 20 20 21 21 22 22 21 20 19 18 21 27 26 26 26 26 26 26 29 28 29 30 28 26 26 26 25 25 24 23 24 23 25 26 26 26 26 25 25 24 24
18 19 19 20 21 21 21 23 23 22 21 20 20 18 26 26 25 26 26 26 26 26 26 27 28 28 27 27 26 26 26 26 25 25 24 24 26 24 23 26 26 26 25 25 24
18 19 20 20 21 22 22 21 22 21 20 19 18 19 28 25 26 27 26 27 26 26 27 27 28 27 27 27 27 25 26 26 25 26 25 24 26 25 24 26 26 26 26 25 25
18 19 20 21 21 22 21 19 18 19 19 18 18 23 27 28 27 27 27 27 28 28 29 29 28 28 27 28 28 27 27 26 27 26 25 25 26 25 25 23 24 26 26 26 26
18 19 20 21 22 23 21 19 22 23 19 26 27 26 27 27 27 28 27 28 29 29 30 27 29 29 29 27 28 28 28 28 27 27 26 26 26 26 25 25 26 24 25 25 27
18 19 20 21 22 23 22 24 24 23 25 24 23 24 25 26 29 29 28 29 29 29 28 29 29 30 28 27 28 28 28 28 27 26 26 26 26 27 26 25 25 25 25 24 27
18 19 21 21 22 21 21 23 23 22 25 27 25 26 28 28 29 30 30 29 28 28 28 29 30 29 29 29 29 30 29 28 29 26 26 26 27 27 26 25 25 25 26 26 26
18 19 21 21 20 21 22 23 22 22 27 29 29 29 27 28 29 29 29 30 28 29 28 29 29 29 29 30 30 30 30 29 27 28 28 26 28 28 27 26 25 26 26 26 25
18 19 20 22 20 21 23 23 23 23 28 29 29 28 28 30 30 29 28 30 29 29 28 30 29 29 29 31 30 30 29 29 28 28 28 26 27 30 25 26 27 26 27 27 28
19 19 20 19 20 23 23 24 23 27 27 30 30 29 29 29 30 29 30 30 29 29 28 29 29 30 31 29 30 28 28 27 27 27 28 28 28 31 29 28 27 27 27 27 27
19 20 20 19 22 23 23 25 27 27 28 29 30 29 30 29 29 30 29 29 29 28 29 29 30 30 30 30 28 29 30 30 29 29 29 26 27 30 29 27 27 27 26 27 27
20 20 19 20 22 22 23 27 25 27 28 29 29 28 30 29 29 29 29 29 27 28 28 30 30 31 30 31 31 30 31 30 28 28 30 25 28 31 27 27 26 26 26 26 26
19 19 19 19 21 22 26 26 27 27 28 28 29 29 29 29 30 29 29 30 30 29 29 29 30 29 29 29 30 28 30 30 28 25 28 29 28 29 28 27 27 27 26 26 26
16 16 19 20 21 21 26 24 25 26 27 28 29 29 30 30 29 29 28 30 30 28 29 29 30 29 29 28 28 30 28 30 28 28 28 28 27 30 28 28 27 27 27 26 25
16 21 19 19 21 24 25 25 25 27 26 28 28 29 30 29 30 29 30 30 30 27 29 29 29 29 29 28 27 29 29 26 28 27 29 29 29 28 28 28 27 27 26 26 26
14 22 20 20 23 19 24 23 23 27 28 28 28 28 29 29 29 29 30 30 30 29 29 27 29 29 28 27 26 26 27 28 30 27 26 27 29 25 26 26 25 25 25 25 25
15 16 19 20 24 23 22 24 25 27 27 28 28 28 28 29 29 29 29 30 29 30 30 28 27 28 28 28 27 28 26 25 26 26 26 28 29 25 25 26 25 25 25 24 24
16 20 20 19 18 21 22 24 25 26 26 26 27 27 28 29 28 29 30 30 29 29 23 28 27 29 29 29 28 28 27 25 27 28 27 28 28 28 27 26 25 24 24 24 23
15 17 16 20 21 19 20 21 24 25 25 25 27 26 26 28 28 29 29 29 28 24 26 30 29 27 27 26 26 27 27 26 26 27 27 29 26 28 27 26 25 23 23 23 23
16 17 16 18 16 19 18 21 23 23 23 26 26 25 25 27 29 30 29 29 30 27 28 25 26 26 27 25 25 26 26 26 26 26 25 26 26 27 26 24 23 23 23 23 22
11 12 15 16 18 20 21 20 21 20 23 24 24 23 25 26 26 29 29 28 30 30 27 27 26 26 28 24 25 26 28 28 27 27 27 26 28 24 24 23 23 23 21 22 22
Height
798 796 794 792 790 789 787 785 784 782 781 779 778 776 775 773 772 772 771 769 769 771 771 772 774 775 775 777 780 781 794 804 802 803 803 791 793 788 790 796 797 799 800 803 811
797 795 794 792 790 788 786 784 782 781 779 777 776 775 774 772 771 770 767 767 768 770 772 772 773 774 776 779 781 785 797 802 797 798 800 794 793 791 795 797 803 804 806 808 812
797 795 793 791 789 787 785 783 781 779 777 776 775 774 773 772 772 764 764 766 768 770 771 772 773 773 778 779 784 787 799 799 800 799 798 797 794 788 796 801 798 803 807 809 813
797 794 792 790 787 785 783 781 779 777 775 774 774 773 772 773 778 763 764 765 768 770 771 772 773 775 780 785 784 792 793 794 800 803 802 799 794 793 794 797 794 801 807 808 812
797 794 791 789 786 784 781 779 777 775 774 773 773 772 772 772 765 763 763 765 768 770 771 771 772 773 782 784 787 793 796 795 797 802 799 797 797 799 798 797 797 804 809 810 811
797 794 790 787 784 782 779 777 775 774 773 772 772 772 772 770 763 763 763 765 767 769 771 771 769 770 780 787 790 793 793 797 800 802 801 803 798 798 796 797 800 804 808 812 813
796 792 789 785 782 780 778 775 773 772 772 772 772 772 771 766 763 763 764 765 767 769 769 770 770 771 776 789 789 791 800 798 802 804 805 803 805 801 797 798 802 803 808 811 814
796 791 787 783 780 778 776 773 771 771 771 772 772 772 767 763 763 764 765 766 767 769 769 770 770 773 778 783 790 797 797 808 804 801 803 806 810 804 801 800 803 804 807 810 812
795 790 785 781 778 776 774 771 769 770 771 772 773 772 766 763 763 763 765 766 768 769 770 771 772 779 784 793 800 803 810 808 808 798 802 809 807 801 801 799 802 802 805 809 810
795 788 783 779 777 774 773 772 771 772 772 773 773 773 762 762 761 762 764 766 768 769 771 772 775 785 790 792 807 809 809 808 805 800 802 806 806 803 799 803 807 801 804 805 808
793 787 782 777 775 772 772 773 775 773 772 765 765 765 761 761 761 763 764 766 767 770 778 780 782 788 783 789 788 793 798 803 798 794 801 802 802 799 798 800 801 804 804 805 802
792 786 781 776 773 771 771 771 771 774 771 763 765 764 761 760 763 762 764 769 772 782 781 784 789 777 782 787 791 791 796 801 799 795 800 800 800 790 793 795 797 798 800 801 800
790 784 779 774 771 771 771 771 770 771 773 762 760 760 758 760 762 763 763 768 776 784 784 787 783 778 784 786 791 787 793 799 798 800 799 803 800 792 790 792 794 795 793 795 795
788 782 777 773 774 770 770 770 769 769 775 767 760 755 757 757 765 760 761 766 776 782 785 785 777 782 785 786 783 790 781 787 795 800 811 801 812 793 789 791 791 789 791 791 791
786 779 774 771 770 770 769 768 766 768 800 763 758 752 755 759 759 764 762 764 776 780 784 782 782 785 786 776 778 787 780 785 791 796 803 809 814 787 794 791 783 784 783 785 785
783 776 770 768 768 768 767 767 768 782 798 766 755 760 762 759 761 762 763 762 766 776 778 776 771 772 768 772 773 778 787 792 796 801 812 803 804 787 787 781 779 775 777 779 781
778 772 766 766 766 765 766 768 786 792 766 768 761 759 761 767 766 765 770 775 780 793 788 779 774 766 765 777 779 780 783 804 811 811 809 806 809 785 775 776 776 774 774 774 777
774 767 764 764 764 765 766 774 801 774 770 756 759 761 766 762 765 767 773 777 777 778 787 787 792 771 765 767 773 780 778 798 825 818 802 809 806 780 773 773 771 772 771 773 774
770 765 763 763 763 764 766 788 778 772 759 762 761 766 766 762 762 769 771 771 762 766 784 788 785 768 768 766 769 785 789 780 800 814 809 796 790 772 770 772 772 770 772 770 769
771 766 765 762 762 766 771 785 774 764 758 759 769 760 767 764 767 768 773 759 762 761 759 773 786 774 771 770 772 771 778 792 795 819 819 801 802 785 775 771 772 773 770 769 768
772 767 767 765 766 767 776 775 769 757 758 761 762 763 759 761 760 766 763 754 752 763 762 767 774 778 771 781 786 780 781 792 787 798 800 805 794 768 767 768 771 770 770 768 767
779 772 769 768 772 783 774 772 766 757 753 755 754 755 757 756 761 761 759 753 745 752 766 770 772 784 785 778 780 781 784 780 786 803 802 798 787 770 769 770 770 769 769 767 764
786 782 770 768 776 776 774 769 763 759 758 756 754 751 750 754 763 755 754 743 745 748 756 762 782 792 790 781 781 781 787 789 787 789 799 797 784 772 769 768 768 769 766 766 764
787 779 773 773 780 778 777 770 768 758 757 754 752 750 754 754 754 755 752 747 745 748 758 755 776 777 788 782 777 785 784 787 782 790 788 785 776 770 769 769 767 767 766 765 763
791 788 791 782 779 781 781 776 771 769 758 756 755 758 760 759 757 756 749 750 750 757 758 754 772 779 777 781 782 780 781 785 787 783 791 774 783 765 767 767 766 767 765 764 763
792 790 790 787 788 782 782 775 773 771 769 759 760 760 759 757 746 751 748 750 748 754 756 762 778 778 782 783 784 785 779 780 780 780 784 775 775 761 762 765 768 767 766 764 764
798 797 793 790 784 781 777 777 774 776 764 762 764 765 761 754 747 739 739 740 735 744 757 761 772 778 782 789 788 791 769 768 767 766 768 776 761 765 766 766 765 766 768 765 763
Wind_Speed
13 12 11 11 11 11 11 10 10 10 8 6 5 6 7 9 8 5 5 3 8 11 9 10 5 3 3 3 3 1 2 4 4 3 4 6 2 3 3 8 2 3 3 10 16
13 12 11 11 10 10 10 11 11 11 10 6 5 5 7 9 6 6 3 9 12 12 9 8 5 4 3 2 2 2 2 2 3 5 4 5 2 5 4 4 3 7 11 17 15
14 13 12 12 11 11 11 12 12 11 10 6 4 4 5 6 2 1 2 13 12 11 6 5 8 3 2 1 3 2 3 6 5 6 5 3 3 2 9 1 2 9 13 14 12
14 14 13 12 11 12 12 12 12 11 8 5 2 3 4 1 4 1 2 13 13 9 7 6 4 3 2 2 2 2 4 3 8 3 4 3 3 3 5 2 6 12 13 14 11
18 16 15 13 12 12 11 12 12 10 6 4 2 3 2 2 1 2 1 16 13 8 6 5 4 3 3 4 4 5 4 5 10 8 1 2 2 4 5 7 13 13 11 11 9
20 19 17 14 13 12 12 12 11 9 4 2 2 2 1 3 3 1 3 14 10 7 5 4 1 5 8 4 5 4 7 11 6 4 4 3 2 2 7 11 12 12 10 8 8
24 22 18 15 14 13 12 11 9 6 3 1 2 2 2 2 2 5 5 5 7 4 3 2 2 1 5 8 9 11 11 7 4 3 2 6 7 4 10 10 11 11 9 8 8
29 24 19 16 15 14 13 11 8 1 0 1 2 2 2 1 2 3 6 3 4 6 1 2 6 8 3 11 3 4 3 4 3 7 4 2 2 7 5 10 10 11 9 9 9
32 29 21 17 15 13 12 7 3 4 3 3 2 2 1 2 3 4 7 1 6 5 1 2 2 5 6 6 3 3 2 1 4 8 4 4 1 7 11 10 10 11 10 8 9
35 32 23 18 16 11 7 3 7 4 3 1 1 2 1 1 2 6 8 4 2 5 4 2 3 3 3 4 2 3 2 2 3 8 6 6 7 6 10 8 8 11 11 11 11
35 35 26 20 15 10 2 1 1 2 2 3 1 2 2 2 2 3 4 5 2 3 3 2 4 6 10 5 5 5 2 1 2 5 8 10 9 10 11 10 13 12 12 13 13
35 35 29 21 14 5 3 0 5 2 5 3 5 5 6 2 3 2 7 2 1 4 2 3 4 3 4 7 5 6 7 3 1 5 9 5 14 15 11 13 14 16 14 13 13
36 36 31 22 8 2 0 3 5 6 2 3 4 3 3 7 4 8 7 3 2 4 3 4 1 2 4 5 8 10 9 5 1 6 5 2 6 9 7 10 9 12 15 13 15
38 38 33 19 1 2 1 2 11 7 1 2 2 3 5 3 3 2 6 3 2 6 4 3 1 3 3 7 9 12 5 7 11 7 0 3 4 2 7 8 13 14 14 16 13
39 38 34 16 3 2 4 9 5 3 2 3 3 5 3 3 6 3 2 2 5 6 5 3 7 6 7 10 9 3 3 9 11 4 2 4 3 1 2 9 15 16 17 17 19
40 37 32 5 5 4 2 1 1 2 2 3 4 5 5 1 3 4 3 2 2 4 3 5 0 4 4 3 8 13 12 8 4 1 3 1 3 4 3 2 1 8 17 18 17
41 38 17 5 1 6 1 2 2 3 2 4 3 4 4 4 5 5 8 9 4 4 6 2 4 2 3 6 7 5 5 2 4 4 4 1 4 7 3 5 4 5 6 16 16
40 31 11 7 5 5 2 2 4 1 4 1 0 4 5 8 4 6 6 6 4 4 2 4 7 3 3 6 6 9 6 4 7 7 6 3 5 2 1 3 5 5 5 5 14
38 14 4 5 9 3 2 3 3 4 1 1 0 4 4 5 3 6 8 5 7 14 6 4 2 1 3 1 2 6 5 2 3 1 4 2 4 9 7 8 5 4 4 6 11
28 9 6 7 8 1 3 4 3 3 2 1 4 5 5 5 8 8 8 4 4 10 3 3 3 2 2 1 8 3 8 3 2 5 8 4 4 4 6 8 6 5 6 3 4
6 3 10 11 3 1 4 5 4 5 4 3 3 3 3 4 7 5 6 2 5 6 4 5 2 3 4 4 1 4 3 4 3 2 6 7 4 3 5 2 3 4 3 6 6
6 2 6 8 1 1 3 4 2 2 3 4 3 4 4 6 6 6 9 4 7 11 8 1 2 1 2 3 1 1 1 2 5 4 2 4 4 1 2 3 2 5 4 4 8
4 3 4 2 2 2 2 3 3 2 2 2 3 5 3 5 4 5 5 1 8 8 8 8 1 3 2 4 3 2 3 2 2 1 6 4 3 1 2 4 3 4 4 4 5
3 3 2 3 1 2 3 1 3 3 4 4 4 1 3 4 2 6 7 2 4 3 7 6 3 4 5 0 2 4 4 3 3 4 2 8 9 4 4 6 4 4 5 5 3
2 2 1 3 2 3 2 2 5 5 2 3 2 5 4 3 3 3 3 4 3 9 4 3 5 5 3 1 3 2 4 6 7 5 7 10 8 12 6 7 6 6 6 5 3
3 2 1 2 3 3 1 2 2 3 2 3 0 7 7 4 6 8 8 5 6 5 3 1 4 4 4 2 1 5 6 7 9 9 11 15 17 8 8 6 6 6 4 5 2
2 1 2 1 2 2 1 1 2 6 5 8 5 8 8 6 12 12 3 2 5 9 6 5 6 5 6 2 2 8 13 13 9 9 8 10 11 2 6 8 6 4 3 3 3
Wind_Direction
3 3 1 2 360 356 354 350 347 347 345 334 313 304 304 312 307 290 237 185 163 147 154 147 138 126 66 80 74 130 97 145 147 75 82 23 116 92 66 128 93 32 103 125 138
0 0 359 356 352 350 349 353 348 343 338 325 307 309 314 322 314 261 196 162 154 160 152 166 149 137 69 67 62 45 65 72 21 103 9 5 157 146 126 136 82 99 102 127 140
360 357 357 352 345 344 342 341 342 339 335 331 319 314 321 328 260 230 142 170 153 159 153 179 138 144 99 64 31 59 70 131 117 74 6 341 138 190 131 275 155 154 143 144 148
3 359 355 349 344 338 335 334 338 339 335 338 351 330 325 354 149 105 116 171 166 163 150 149 155 160 114 84 73 54 74 112 130 28 9 30 342 124 125 40 121 136 152 151 154
8 3 358 350 341 335 332 332 336 338 333 352 14 7 108 207 272 322 144 176 172 162 181 176 167 173 101 105 98 78 117 77 120 147 294 308 95 39 141 113 121 133 153 163 158
7 2 355 348 341 335 329 328 333 337 333 6 39 38 247 139 323 157 130 169 182 182 174 193 113 104 108 72 54 113 119 111 128 116 21 52 275 290 146 138 136 146 160 172 173
8 359 354 348 340 332 325 323 328 330 325 29 61 43 259 92 54 142 130 173 196 169 167 205 112 200 116 107 123 121 111 116 116 104 120 147 263 167 145 157 155 161 171 180 194
7 359 351 343 340 336 330 323 318 285 316 113 58 32 252 217 190 210 177 146 183 186 76 86 98 95 70 122 99 109 125 161 132 174 149 182 184 143 165 158 175 174 185 198 199
5 360 353 341 337 344 336 349 42 135 116 115 48 337 112 233 244 211 189 147 136 183 285 107 76 83 134 136 108 30 96 127 158 196 149 210 59 156 178 190 186 186 201 201 211
5 0 356 345 338 346 354 76 91 93 103 21 326 205 250 22 161 141 171 147 101 130 139 129 99 114 144 206 93 135 139 208 243 193 210 204 246 174 188 187 196 204 204 212 213
3 -0 357 347 340 341 359 152 230 161 173 250 325 292 305 341 136 133 153 146 121 90 156 45 201 195 203 183 102 120 140 272 249 178 199 228 251 230 200 216 208 205 210 222 221
358 358 355 346 339 349 86 195 105 67 307 233 246 271 266 260 139 107 149 141 76 135 138 160 234 238 133 189 234 265 286 283 80 170 208 242 251 247 223 223 216 205 209 213 218
354 353 351 344 341 95 132 154 181 326 265 294 202 207 192 174 179 181 174 121 121 141 185 210 55 96 198 217 234 248 252 198 280 156 208 285 265 238 224 223 230 211 223 221 216
351 348 345 346 69 331 210 202 294 184 356 158 219 165 137 187 167 179 172 143 150 194 167 249 177 225 237 242 222 273 270 190 148 166 141 229 318 273 223 241 223 221 208 219 222
348 344 339 334 277 222 155 331 126 168 132 138 147 132 144 199 139 144 174 138 173 166 190 189 179 186 222 238 188 297 154 157 158 146 184 176 254 186 214 238 239 222 217 213 218
344 340 333 316 220 200 259 55 193 252 157 161 138 169 155 127 113 120 163 74 74 183 237 263 222 213 231 87 170 133 108 101 91 116 239 111 252 277 199 234 227 231 225 214 216
341 337 326 226 211 182 8 142 255 216 12 176 184 175 187 160 175 172 178 192 210 202 226 216 214 229 202 120 139 186 184 211 225 213 278 93 199 263 238 223 252 266 234 221 213
339 336 318 239 225 241 171 131 239 209 215 349 173 144 205 169 189 169 169 206 199 180 269 226 188 185 157 228 204 201 239 239 260 237 261 140 226 237 173 219 261 256 245 212 219
338 334 353 354 211 152 163 188 248 207 181 294 41 196 191 194 184 178 205 216 206 191 215 179 135 56 2 126 215 158 205 27 161 92 249 188 263 263 233 239 213 241 229 266 248
335 330 353 329 180 183 168 234 253 234 297 169 215 212 203 182 183 193 183 183 213 189 214 178 190 75 121 158 64 233 130 174 182 233 247 210 260 251 220 218 209 238 250 286 285
347 348 6 105 93 68 204 225 264 250 245 234 215 205 223 188 200 190 185 195 191 146 154 161 255 125 191 38 37 151 183 68 115 271 266 255 241 230 241 195 233 251 253 300 289
348 327 357 349 149 9 203 211 267 268 218 264 260 232 218 174 176 203 203 242 150 148 171 120 108 86 84 119 62 293 28 230 247 194 234 302 252 41 264 281 262 276 290 308 297
349 292 357 5 212 215 283 268 266 271 269 278 257 222 184 194 192 201 203 179 161 165 159 173 94 153 181 175 164 232 118 113 115 174 202 227 240 46 298 261 249 276 309 333 319
324 339 356 53 51 20 6 297 282 292 265 270 275 310 226 190 230 186 173 130 169 112 86 122 137 211 258 135 108 186 186 177 245 253 229 251 281 263 266 276 268 282 301 321 309
347 61 52 357 71 359 293 318 294 304 299 279 156 41 299 178 168 226 167 146 110 152 105 199 165 191 196 170 196 220 202 198 228 243 248 289 251 279 284 263 271 294 290 305 315
339 345 17 297 299 284 191 190 258 325 287 304 311 354 329 242 191 215 187 206 175 183 138 120 149 171 189 170 198 261 255 248 249 250 252 262 272 296 264 250 261 284 297 322 322
6 328 291 7 316 280 244 326 129 0 263 274 319 341 311 321 297 277 238 98 203 169 153 158 148 181 237 180 235 259 250 233 234 230 241 253 281 214 229 241 252 269 269 300 341